Weather History for Stevensville, MD

Change the Weather History Date:

Wednesday, November 21, 2012

  Actual Average (KESN) Record (KESN)
Temperature  
Mean Temperature 44 °F -  
Max Temperature 51 °F 50 °F 70 °F (1953)
Min Temperature 37 °F 36 °F 25 °F (1966)
Degree Days  
Heating Degree Days 21    
Moisture  
Dew Point 36 °F    
Average Humidity 72    
Maximum Humidity 93    
Minimum Humidity 47    
Precipitation  
Precipitation 0.00 in - - ()
Sea Level Pressure  
Sea Level Pressure 30.18 in    
Wind  
Wind Speed 3 mph (North)    
Max Wind Speed 12 mph    
Max Gust Speed -    
Visibility 10 miles    
Events      
Averages and records for this station are not official NWS values.
T = Trace of Precipitation, MM = Missing Value Source: NWS Daily Summary

Daily Weather History Graph

Daily Weather History Graph

Search for Another Location

Airport:

Trip Planner

Search our weather history database for the weather conditions in past years. The results will help you decide how hot, cold, wet, or windy it might be!

Date:

Astronomy

Nov. 21, 2012 Rise Set
Actual Time 6:55 AM EST 4:47 PM EST
Civil Twilight 6:26 AM EST 5:16 PM EST
Nautical Twilight 5:53 AM EST 5:48 PM EST
Astronomical Twilight 5:21 AM EST 6:20 PM EST
Moon 12:59 PM EST (11/21) 12:15 AM EST (11/21)
Length of Visible Light 10h 49m
Length of Day
9h 51m
First Quarter, 61% of the Moon is Illuminated
Nov 21
First Quarter
Nov 28
Full
Dec 6
Last Quarter
Dec 13
New
Dec 20
First Quarter

Hourly Weather History & Observations

Time (EST) Temp. Windchill Dew Point Humidity Pressure Visibility Wind Dir Wind Speed Gust Speed Precip Events Conditions
12:05 AM 42.8 °F - 41.0 °F 93% 30.14 in 10.0 mi Calm Calm - N/A   Clear
12:27 AM 42.8 °F 41.1 °F 41.0 °F 93% 30.14 in 7.0 mi North 3.5 mph - N/A   Clear
12:48 AM 42.8 °F 41.1 °F 41.0 °F 93% 30.14 in 7.0 mi North 3.5 mph - N/A   Clear
1:09 AM 42.8 °F - 41.0 °F 93% 30.14 in 5.0 mi Calm Calm - N/A   Clear
1:31 AM 41.0 °F - 39.2 °F 93% 30.13 in 7.0 mi Calm Calm - N/A   Clear
1:52 AM 42.8 °F 41.1 °F 37.4 °F 81% 30.13 in 10.0 mi NE 3.5 mph - N/A   Clear
2:13 AM 39.2 °F - 35.6 °F 87% 30.14 in 7.0 mi Calm Calm - N/A   Clear
2:34 AM 41.0 °F 39.0 °F 37.4 °F 87% 30.14 in 10.0 mi NNE 3.5 mph - N/A   Clear
2:56 AM 39.2 °F - 35.6 °F 87% 30.15 in 10.0 mi Calm Calm - N/A   Clear
3:16 AM 37.4 °F 34.9 °F 35.6 °F 93% 30.14 in 7.0 mi NNE 3.5 mph - N/A   Clear
3:38 AM 41.0 °F - 37.4 °F 87% 30.14 in 7.0 mi Calm Calm - N/A   Clear
4:00 AM 41.0 °F 39.0 °F 37.4 °F 87% 30.14 in 10.0 mi NNE 3.5 mph - N/A   Clear
4:21 AM 41.0 °F - 37.4 °F 87% 30.15 in 10.0 mi Calm Calm - N/A   Clear
4:42 AM 41.0 °F 39.0 °F 37.4 °F 87% 30.15 in 10.0 mi NNE 3.5 mph - N/A   Clear
5:04 AM 41.0 °F 39.0 °F 37.4 °F 87% 30.16 in 10.0 mi North 3.5 mph - N/A   Clear
5:25 AM 41.0 °F - 37.4 °F 87% 30.16 in 10.0 mi Calm Calm - N/A   Clear
5:46 AM 41.0 °F 39.0 °F 35.6 °F 81% 30.16 in 10.0 mi NE 3.5 mph - N/A   Clear
6:07 AM 41.0 °F 39.0 °F 37.4 °F 87% 30.17 in 10.0 mi NNE 3.5 mph - N/A   Clear
6:29 AM 41.0 °F 38.0 °F 35.6 °F 81% 30.17 in 10.0 mi NNE 4.6 mph - N/A   Clear
6:50 AM 41.0 °F - 35.6 °F 81% 30.18 in 10.0 mi Calm Calm - N/A   Clear
7:11 AM 41.0 °F 39.0 °F 35.6 °F 81% 30.18 in 10.0 mi NNE 3.5 mph - N/A   Clear
7:33 AM 42.8 °F 39.3 °F 35.6 °F 76% 30.19 in 10.0 mi NE 5.8 mph - N/A   Clear
7:54 AM 42.8 °F 40.1 °F 35.6 °F 76% 30.19 in 10.0 mi NE 4.6 mph - N/A   Clear
8:15 AM 44.6 °F 42.2 °F 35.6 °F 71% 30.20 in 10.0 mi NNE 4.6 mph - N/A   Clear
8:36 AM 44.6 °F 42.2 °F 35.6 °F 71% 30.20 in 10.0 mi NNE 4.6 mph - N/A   Clear
8:57 AM 46.4 °F 44.3 °F 37.4 °F 71% 30.20 in 10.0 mi NNE 4.6 mph - N/A   Clear
9:19 AM 46.4 °F 43.5 °F 37.4 °F 71% 30.21 in 10.0 mi NNE 5.8 mph - N/A   Clear
9:40 AM 46.4 °F 43.5 °F 37.4 °F 71% 30.21 in 10.0 mi North 5.8 mph - N/A   Clear
10:01 AM 48.2 °F - 35.6 °F 62% 30.21 in 10.0 mi North 8.1 mph - N/A   Clear
10:22 AM 48.2 °F - 37.4 °F 66% 30.21 in 10.0 mi North 8.1 mph - N/A   Clear
10:44 AM 50.0 °F - 39.2 °F 66% 30.21 in 10.0 mi NNW 6.9 mph - N/A   Clear
11:05 AM 48.2 °F - 39.2 °F 71% 30.21 in 10.0 mi NNW 6.9 mph - N/A   Clear
11:26 AM 48.2 °F - 37.4 °F 66% 30.20 in 10.0 mi North 8.1 mph - N/A   Clear
11:47 AM 50.0 °F - 37.4 °F 62% 30.20 in 10.0 mi North 8.1 mph - N/A   Clear
12:09 PM 50.0 °F - 37.4 °F 62% 30.19 in 10.0 mi NNW 9.2 mph - N/A   Clear
12:51 PM 50.0 °F - 33.8 °F 54% 30.18 in 10.0 mi NNW 9.2 mph - N/A   Clear
1:12 PM 51.8 °F - 33.8 °F 50% 30.18 in 10.0 mi North 11.5 mph - N/A   Clear
1:33 PM 51.8 °F - 32.0 °F 47% 30.17 in 10.0 mi NNW 11.5 mph - N/A   Clear
1:55 PM 51.8 °F - 33.8 °F 50% 30.17 in 10.0 mi NNW 9.2 mph - N/A   Clear
2:58 PM 51.8 °F - 35.6 °F 54% 30.16 in 10.0 mi NNW 8.1 mph - N/A   Clear
3:20 PM 51.8 °F - 35.6 °F 54% 30.17 in 10.0 mi NNW 6.9 mph - N/A   Clear
3:41 PM 51.8 °F - 35.6 °F 54% 30.17 in 10.0 mi NNW 6.9 mph - N/A   Clear
4:02 PM 51.8 °F - 32.0 °F 47% 30.17 in 10.0 mi NNW 6.9 mph - N/A   Clear
4:23 PM 51.8 °F - 33.8 °F 50% 30.17 in 10.0 mi NNW 5.8 mph - N/A   Clear
4:45 PM 50.0 °F - 35.6 °F 58% 30.18 in 10.0 mi North 4.6 mph - N/A   Clear
5:06 PM 50.0 °F - 33.8 °F 54% 30.18 in 10.0 mi North 3.5 mph - N/A   Clear
5:27 PM 48.2 °F - 33.8 °F 58% 30.19 in 10.0 mi Calm Calm - N/A   Clear
5:48 PM 48.2 °F - 32.0 °F 54% 30.19 in 10.0 mi Calm Calm - N/A   Clear
6:09 PM 46.4 °F - 32.0 °F 57% 30.20 in 10.0 mi Calm Calm - N/A   Clear
6:31 PM 46.4 °F - 33.8 °F 62% 30.20 in 10.0 mi Calm Calm - N/A   Clear
6:52 PM 46.4 °F - 37.4 °F 71% 30.21 in 10.0 mi Calm Calm - N/A   Clear
7:13 PM 46.4 °F - 35.6 °F 66% 30.22 in 10.0 mi Calm Calm - N/A   Clear
7:35 PM 46.4 °F - 33.8 °F 62% 30.22 in 10.0 mi Calm Calm - N/A   Clear
7:56 PM 46.4 °F - 33.8 °F 62% 30.22 in 10.0 mi Calm Calm - N/A   Clear
8:17 PM 46.4 °F 45.2 °F 33.8 °F 62% 30.22 in 10.0 mi North 3.5 mph - N/A   Clear
8:38 PM 44.6 °F 42.2 °F 33.8 °F 66% 30.22 in 10.0 mi North 4.6 mph - N/A   Clear
8:59 PM 44.6 °F 43.1 °F 35.6 °F 71% 30.22 in 10.0 mi North 3.5 mph - N/A   Clear
9:21 PM 44.6 °F 43.1 °F 35.6 °F 71% 30.22 in 10.0 mi North 3.5 mph - N/A   Clear
9:42 PM 44.6 °F 42.2 °F 35.6 °F 71% 30.22 in 10.0 mi North 4.6 mph - N/A   Clear
10:03 PM 44.6 °F 42.2 °F 35.6 °F 71% 30.22 in 10.0 mi North 4.6 mph - N/A   Clear
10:25 PM 44.6 °F 43.1 °F 35.6 °F 71% 30.22 in 10.0 mi NNE 3.5 mph - N/A   Clear
10:46 PM 44.6 °F 43.1 °F 35.6 °F 71% 30.22 in 10.0 mi NE 3.5 mph - N/A   Clear
11:07 PM 41.0 °F - 35.6 °F 81% 30.22 in 10.0 mi Calm Calm - N/A   Clear
11:28 PM 41.0 °F - 33.8 °F 76% 30.22 in 10.0 mi Calm Calm - N/A   Clear
11:50 PM 39.2 °F 37.0 °F 33.8 °F 81% 30.22 in 10.0 mi SE 3.5 mph - N/A   Clear